Terminal Aerodrome Forecast
Issued by NWS Denver/Boulder, CO

Home | Current Version | Previous Version | Text Only | Print | Product List | Glossary On
Versions: 1 2 3 4 5 6 7 8 9 10 11 12 13 14 15 16 17 18 19 20 21 22 23 24 25 26 27 28 29 30 31 32 33 34 35 36 37 38 39 40 41 42 43 44 45 46 47 48 49 50
000
FTUS45 KBOU 230854 AAA
TAFDEN
TAF AMD
KDEN 230854Z 2309/2412 33020G28KT P6SM BKN090 OVC120
     FM231200 35022G30KT P6SM VCSH BKN060 BKN090
     FM231700 35024G34KT P6SM VCSH BKN060 BKN090
     FM232300 33018G28KT P6SM SCT060 BKN090
     FM240100 27010KT P6SM SCT090 SCT200
     FM240400 21011KT P6SM FEW090 SCT200=

USA.gov is the U.S. government's official web portal to all federal, state and local government web resources and services.